Regional Weather Roundup
Issued by NWS

Home | Current Version | Previous Version | Text Only | Print | Product List | Glossary Off
Versions: 1 2 3 4 5 6 7 8 9 10 11 12 13 14 15 16 17 18 19 20 21 22 23 24 25 26 27 28 29 30 31 32 33 34 35 36 37 38 39 40 41 42 43 44 45 46 47 48 49 50

000
ASUS43 KIND 240909
RWRIN

WEATHER ROUNDUP FOR INDIANA
NATIONAL WEATHER SERVICE INDIANAPOLIS IN
500 AM EDT SUN MAY 24 2015

NOTE: "FAIR" INDICATES FEW OR NO CLOUDS BELOW 12,000 FEET WITH NO
SIGNIFICANT WEATHER AND/OR OBSTRUCTIONS TO VISIBILITY.

* - STATION DOES NOT REPORT WEATHER SUCH AS PRECIPITATION OR FOG.

+ - STATION NOT QUALITY CONTROLLED BY THE NATIONAL WEATHER SERVICE.
    USE DATA WITH CAUTION...ESPECIALLY DEWPOINT AND RELATIVE
    HUMIDITY OBSERVATIONS.

INZ001>003-010>013-019-020-241000-
NORTHWEST INDIANA

CITY           SKY/WX    TMP DP  RH WIND       PRES   REMARKS
GARY /AIRPORT/ MOCLDY    64  47  55 SE3       30.20F
KNOX *+        PTCLDY    55  46  71 SE3       30.22S
LA PORTE +     PTCLDY    56  49  78 CALM      30.23S
MICHIGAN CITY+ PTCLDY    54  46  76 CALM      30.22S
MONTICELLO +   MOCLDY    61  48  62 SE5       30.21S
RENSSELAER +   CLOUDY    59  48  67 CALM      30.21S
VALPARAISO     PTCLDY    56  49  77 NE5       30.22S

$$

LMZ046-743>745-241000-
SOUTHERN LAKE MICHIGAN

STATION/POSITION TIME  TEMP    WIND        PRES    WAVE
                       AIR SEA DIR/SP/G            HT
                 (UTC) (F)     (DEG/KT/KT) (MB)    (FT)
BURNS HARBOR     0900   65     180/  5/  8 1023.4S
MICHIGAN CITY    0900   65     140/  8/ 11   N/A
5NW MICH CITY    0900   58 54  160/  4/  4   N/A     0

$$

INZ004-005-014>016-021>024-241000-
NORTH CENTRAL INDIANA

CITY           SKY/WX    TMP DP  RH WIND       PRES   REMARKS
GOSHEN         PTCLDY    52  47  83 CALM      30.24R
LOGANSPORT +   PTCLDY    55  43  62 SE5       30.24R
PERU/GRISSOM   MOCLDY    58  47  67 SE5       30.22S
ROCHESTER +    PTCLDY    59  48  67 CALM      30.24S
SOUTH BEND     PTCLDY    56  48  74 CALM      30.25R
WARSAW +       PTCLDY    52  46  82 CALM      30.24S

$$

INZ006>009-017-018-025>027-241000-
NORTHEAST INDIANA

CITY           SKY/WX    TMP DP  RH WIND       PRES   REMARKS
ANGOLA *+      CLEAR     52  48  87 CALM      30.26R
AUBURN +       PTCLDY    54  46  76 CALM      30.26S
FORT WAYNE     MOCLDY    55  48  77 CALM      30.26R
HUNTINGTON +   PTCLDY    52  47  83 SE3       30.24S

$$

INZ028-029-035-036-043>045-051>053-241000-
WEST CENTRAL INDIANA

CITY           SKY/WX    TMP DP  RH WIND       PRES   REMARKS
CRAWFORDSVL +  MOCLDY    59  44  57 SE5       30.21F
GREENCASTLE +  CLOUDY    59  46  63 SE3       30.22F
LAFAYETTE      MOCLDY    58  50  75 CALM      30.21R
TERRE HAUTE    CLOUDY    62  52  69 CALM      30.20S

$$

INZ030>032-037>040-046>048-054>057-064-065-241000-
CENTRAL INDIANA

CITY           SKY/WX    TMP DP  RH WIND       PRES   REMARKS
CP ATTERBURY + CLOUDY    52  50  93 CALM      30.24S
FISHERS *+     PTCLDY    59  52  77 SE3       30.23F
FRANKFORT +    MOCLDY    59  48  67 E7        30.23F
GREENWOOD *+   MOCLDY    61  45  55 SE5       30.24S
INDIANAPOLIS   MOCLDY    61  47  59 SE9       30.21S
-EAGLE CREEK   MOCLDY    61  48  62 SE6       30.22F
KOKOMO *+      CLEAR     55  46  71 SE7       30.23S
MARION +       CLEAR     54  46  74 SE6       30.25S
MT COMFORT *+  PTCLDY    61  39  44 SE5       30.24F
SHELBYVILLE    PTCLDY    64  48  56 SE7       30.23S
ZIONSVILLE +   PTCLDY    59  46  60 SE6       30.24S

$$

INZ033-034-041-042-049-050-058-059-241000-
EAST CENTRAL INDIANA

CITY           SKY/WX    TMP DP  RH WIND       PRES   REMARKS
MUNCIE         CLEAR     61  46  57 S5        30.25S

$$

INZ060-061-067>069-081>083-085>088-241000-
SOUTHWEST INDIANA

CITY           SKY/WX    TMP DP  RH WIND       PRES   REMARKS
EVANSVILLE     CLOUDY    64  51  62 CALM      30.18F
HUNTINGBURG *+ MOCLDY    63  48  59 SE5       30.20F
WASHINGTON +   MOCLDY    61  49  62 E5        30.19F

$$

INZ062-063-066-070>080-084-089>092-241000-
SOUTH CENTRAL AND SOUTHEAST INDIANA

CITY           SKY/WX    TMP DP  RH WIND       PRES   REMARKS
BLOOMINGTON    CLOUDY    61  52  72 SE3       30.22F
MADISON *+     CLOUDY    63  46  55 SE6       30.27F
NORTH VERNON + MOCLDY    63  48  59 SE6       30.25S
SEYMOUR +      CLOUDY    59  52  77 CALM      30.23F

$$




USA.gov is the U.S. government's official web portal to all federal, state and local government web resources and services.